Vorticity
38 32 26 20 17 15 15 14 13 11 8 4 1 -0 -1 -2 0 2 2 2 0 0 1 3 6 9 11 14 15 15 13 10 7 6 6 7 9 11 13 14 13 12 10 10 9 9 11 18 24 19 8 -7 -11 -11 -10 -9 -7 -5 -4 -3 -3 2 8 16 17 15 11 6 3
36 38 36 30 24 20 17 16 15 14 12 9 5 2 -0 -1 -1 0 2 2 1 0 -0 0 1 3 6 8 11 13 14 13 11 9 9 9 12 14 16 16 16 16 15 14 14 13 14 17 20 19 14 6 1 1 2 3 2 1 -0 -2 -6 -6 0 11 18 21 20 17 11
23 32 38 38 34 28 23 19 17 16 15 13 10 6 3 1 -0 -0 1 2 2 1 1 0 -0 -0 1 2 4 7 10 13 13 12 11 10 12 13 15 16 16 17 18 17 16 17 18 19 17 14 10 7 6 7 10 13 13 12 9 3 -4 -8 -7 2 13 18 21 24 24
9 18 27 35 37 36 32 27 23 20 18 16 14 11 8 4 2 1 1 2 2 2 2 0 -0 -0 -1 -0 1 3 4 6 8 8 8 7 7 8 9 11 12 13 14 16 16 16 18 21 18 12 6 2 2 4 7 12 16 18 17 11 2 -6 -9 -3 8 12 13 15 22
5 7 12 21 30 35 36 34 30 26 22 19 18 16 13 9 6 4 3 2 3 3 2 2 1 1 0 0 1 2 2 2 2 1 1 1 1 2 3 4 6 7 9 10 10 12 14 18 20 16 10 2 -2 -3 -1 3 10 16 18 16 8 -1 -7 -7 6 10 9 4 9
6 5 5 8 16 25 32 36 35 32 29 25 22 20 17 14 11 8 6 4 4 3 3 4 3 3 3 2 2 2 2 3 2 0 -1 -2 -2 -2 -1 0 2 3 4 5 5 6 7 11 16 19 18 11 2 -5 -8 -8 -1 7 14 17 13 5 -3 -8 -0 7 9 2 1
7 6 6 4 6 12 20 29 34 35 34 32 28 24 22 19 16 13 10 7 6 5 4 4 4 4 4 4 4 3 3 4 4 3 2 0 -1 -1 -1 -1 0 1 2 3 3 2 2 3 8 14 19 21 13 4 -4 -10 -8 -2 4 11 13 10 4 -5 -7 -2 4 5 2
8 8 7 6 5 5 8 14 23 30 35 36 33 30 27 24 21 17 14 11 9 7 5 5 5 5 5 5 5 4 4 4 4 5 4 3 2 0 -1 -1 -1 -0 1 2 2 2 1 0 1 5 11 18 18 14 7 -0 -4 -4 -2 2 8 10 9 3 -6 -10 -7 -0 2
10 9 8 7 6 5 5 5 10 17 26 32 34 35 33 30 26 22 19 15 12 10 8 8 7 6 6 6 6 5 5 4 5 5 6 5 4 3 2 0 -0 -0 0 1 2 2 2 2 1 1 3 7 13 15 14 10 6 3 1 0 4 7 10 9 1 -8 -13 -10 -3
11 10 9 8 7 6 6 5 5 7 12 20 27 32 35 35 32 29 25 21 18 14 12 9 8 7 7 7 7 7 6 6 6 6 6 7 6 6 4 3 2 2 2 2 2 2 3 4 3 2 1 1 4 8 12 13 10 8 6 5 5 7 9 11 7 -1 -9 -15 -11
10 11 11 10 8 7 6 6 5 5 6 8 14 22 29 34 36 35 32 29 25 20 16 12 10 10 9 8 8 8 7 7 7 6 7 7 8 7 7 6 4 4 3 3 3 3 3 4 4 4 3 2 2 3 6 9 9 9 8 8 8 9 10 11 10 6 -0 -8 -12
9 10 11 12 10 9 8 7 6 6 5 5 6 10 16 23 30 34 36 36 32 28 23 18 15 13 11 10 9 9 8 8 8 7 7 7 8 8 8 7 6 5 4 4 4 4 4 4 4 4 4 5 4 4 4 5 6 7 7 8 9 10 12 13 12 10 6 1 -4
8 9 11 12 12 11 10 8 7 6 6 5 5 5 7 10 16 24 30 36 36 35 31 27 22 18 15 12 11 10 9 9 9 8 8 8 7 8 8 8 8 7 6 5 5 5 4 4 3 3 4 5 5 5 5 4 5 5 6 6 7 8 10 12 13 12 10 7 4
6 8 10 11 12 12 12 10 8 7 6 6 6 5 5 5 7 12 18 26 31 34 36 34 30 26 22 18 15 13 11 11 11 10 10 9 8 8 8 8 8 8 8 7 7 6 6 5 4 4 3 4 4 5 5 5 5 5 5 5 5 6 7 9 11 11 10 9 7
6 6 8 10 12 13 13 12 10 8 7 6 6 6 6 5 5 6 8 13 19 25 31 35 35 33 30 26 22 18 15 13 13 12 11 10 10 9 9 8 8 8 8 8 8 8 8 7 6 5 4 4 4 4 4 5 5 5 5 4 4 4 5 6 7 9 9 8 8
6 6 6 7 10 12 13 14 13 11 9 7 6 5 5 6 6 6 6 7 9 14 20 27 31 34 34 33 30 26 22 18 16 14 13 12 11 10 10 9 9 9 8 8 8 9 9 9 8 7 6 5 4 4 4 5 5 5 5 5 5 4 4 4 5 6 7 7 7
7 6 6 6 7 10 12 14 14 14 12 9 7 6 5 5 5 6 6 6 6 8 10 15 20 26 30 33 34 32 29 26 22 19 16 14 13 12 11 10 10 9 9 9 8 8 9 9 9 8 8 7 6 6 5 5 5 5 5 5 5 5 5 5 5 6 6 6 6
9 7 6 5 6 7 9 12 14 15 15 13 10 8 6 4 4 5 6 6 6 6 7 8 11 15 20 25 29 32 33 32 29 25 22 19 17 15 13 12 11 10 10 9 9 8 8 8 8 8 8 8 7 7 7 6 6 6 6 6 6 6 6 6 6 6 6 6 7
10 9 8 6 6 6 7 9 12 14 16 16 14 11 8 6 4 4 4 5 6 6 6 6 7 9 12 16 20 24 29 32 32 30 28 26 22 20 17 15 13 12 11 10 10 9 9 8 8 7 7 7 7 7 7 7 7 7 6 6 6 6 6 5 5 6 6 7 7
11 10 9 8 6 6 5 6 8 11 14 16 16 15 13 10 7 5 4 3 4 5 6 6 6 7 8 10 13 16 20 24 28 30 31 30 28 26 23 20 17 15 13 12 11 10 10 9 9 8 8 7 7 7 7 7 7 7 6 6 6 6 5 5 5 5 6 6 6
11 11 10 9 8 6 6 5 6 8 10 14 16 17 16 14 11 8 6 4 3 3 4 4 5 6 7 8 10 11 13 16 20 24 27 29 30 30 29 27 24 21 18 15 13 12 10 10 10 9 9 9 8 8 7 6 6 6 6 6 6 6 5 5 5 5 6 6 6
11 11 11 10 9 8 6 5 5 6 7 10 13 16 18 18 16 13 10 6 4 3 2 3 4 5 6 7 9 10 11 12 14 17 20 23 26 28 30 30 29 27 24 21 18 15 13 11 10 10 10 9 9 9 8 8 7 6 6 6 6 6 6 6 6 6 6 6 6
11 11 12 11 10 9 8 6 6 5 6 7 9 12 15 18 19 18 15 12 8 5 3 2 2 3 4 6 8 9 10 12 12 13 14 17 20 23 26 28 30 30 30 28 25 21 18 14 12 11 10 10 9 9 9 9 8 8 7 7 7 7 6 6 6 6 7 7 7
10 11 12 12 11 10 9 8 6 6 5 6 7 9 12 15 18 19 19 17 13 10 6 3 2 2 2 4 6 8 10 11 12 12 12 12 14 16 19 23 26 29 30 32 31 29 25 21 17 14 12 10 10 9 9 9 8 8 8 8 7 7 7 7 7 7 7 7 7
10 11 12 12 12 12 10 9 7 6 6 5 6 7 8 11 14 17 20 20 18 15 11 7 4 2 2 2 4 6 9 10 12 12 12 11 11 12 14 17 20 23 26 29 31 32 31 29 26 21 17 14 12 10 9 9 8 8 8 8 8 7 7 7 8 8 8 7 7
9 10 11 12 13 12 12 10 9 7 6 6 6 6 7 9 11 14 17 20 20 19 16 12 8 5 2 2 2 4 7 9 11 11 11 11 10 10 11 12 15 17 20 24 27 30 32 33 32 30 26 22 17 14 12 10 9 8 8 8 8 8 7 7 7 7 8 8 8
8 10 12 13 13 13 12 11 10 9 7 6 6 6 6 7 9 12 14 18 19 20 19 16 12 8 5 3 2 3 5 7 10 11 11 11 10 9 9 9 11 13 15 18 22 24 28 30 33 33 32 30 26 22 18 14 12 10 9 8 8 8 8 7 7 7 7 7 8
8 10 12 13 14 14 13 13 11 10 8 7 7 6 6 7 8 10 12 14 17 19 20 19 16 13 9 6 4 3 4 6 8 10 11 11 10 9 8 8 8 9 11 14 17 20 23 25 28 31 33 34 32 30 26 22 18 14 12 10 9 8 8 8 8 8 7 7 7
8 10 12 14 14 14 14 13 12 11 10 8 8 7 7 7 8 9 10 12 15 17 19 20 18 16 12 9 6 4 4 4 7 9 11 11 10 10 8 7 7 7 8 10 13 15 18 21 24 26 29 32 33 33 32 30 26 22 18 14 12 10 9 8 8 8 8 8 7
8 10 12 14 15 15 15 14 13 12 10 10 9 8 7 7 8 8 10 11 13 15 17 18 18 17 15 12 8 6 4 4 6 8 10 11 11 11 10 8 7 7 6 7 9 11 14 16 19 22 24 27 29 31 33 33 32 29 26 22 18 14 12 10 9 8 8 8 7
7 10 12 14 15 16 15 14 13 12 11 10 9 8 8 7 8 8 9 10 12 13 15 17 18 18 16 14 11 8 6 4 5 6 8 10 11 11 11 10 8 7 7 6 7 8 10 12 14 17 19 21 24 27 29 31 32 32 31 29 25 21 18 15 13 11 10 9 8
7 9 12 14 15 16 16 15 14 13 12 10 10 9 8 8 8 8 9 10 11 12 14 16 17 17 17 15 12 10 7 5 5 6 7 9 11 12 12 11 10 8 7 6 6 7 8 9 11 13 15 17 19 22 24 27 29 30 32 32 30 28 25 22 19 16 14 12 10
7 9 12 14 16 16 16 16 14 13 12 11 10 10 9 8 8 8 9 10 11 12 13 15 16 17 16 16 14 11 9 6 5 6 6 8 10 11 12 12 10 9 8 7 7 7 7 8 9 10 12 13 15 17 20 22 24 26 28 30 31 31 30 28 26 23 20 17 15
7 10 12 15 16 16 16 16 15 14 12 11 10 10 10 9 9 9 9 10 10 12 13 14 15 16 16 16 14 12 10 8 6 6 6 7 9 10 11 12 11 10 9 8 7 7 7 8 9 10 11 12 13 14 16 18 20 21 23 25 27 28 29 30 29 28 26 24 22
8 10 13 15 16 17 17 16 15 14 12 11 10 10 10 10 9 9 9 9 10 11 12 13 14 15 16 15 14 13 11 9 7 6 6 7 8 10 11 11 11 10 10 9 8 8 8 8 9 10 10 11 12 13 14 16 17 18 19 20 22 23 25 26 27 28 28 28 27
9 11 13 16 16 17 17 16 15 14 12 11 10 10 10 10 9 9 9 9 10 11 12 13 14 14 15 15 14 13 12 10 8 7 6 6 8 9 10 11 11 11 10 10 9 9 9 9 9 10 10 11 12 13 14 15 16 16 17 18 19 20 20 21 22 24 25 27 28
10 12 14 16 17 17 17 16 15 14 12 10 10 10 10 10 9 9 9 9 10 10 11 12 13 14 14 14 14 13 12 10 9 8 7 6 7 8 10 11 11 11 11 10 10 10 10 10 10 10 10 11 12 13 13 14 15 16 16 17 17 18 18 19 19 20 21 22 24
12 14 16 17 18 17 17 16 15 13 11 10 10 9 9 9 9 9 9 9 10 10 10 11 12 13 14 14 14 13 13 11 10 8 7 7 7 8 9 11 12 12 12 11 11 11 11 11 11 11 11 11 12 13 13 14 15 15 16 16 16 17 18 18 18 18 18 18 20
14 16 17 18 18 18 17 16 15 13 11 9 9 9 9 9 8 8 8 9 10 10 10 11 12 12 13 14 14 14 13 12 10 9 8 7 7 8 9 10 12 12 12 12 11 11 12 12 12 12 12 12 12 13 13 14 15 15 16 16 16 16 17 17 18 17 17 17 17
15 17 18 19 19 18 17 16 15 12 10 9 8 8 8 8 7 8 8 9 10 10 11 11 11 12 13 14 14 14 14 13 12 10 9 8 8 8 9 10 12 12 13 12 12 11 11 12 12 12 12 12 13 13 14 14 15 16 16 16 16 16 16 17 17 17 17 17 17
16 17 19 19 19 18 17 16 14 12 10 9 8 7 7 6 7 7 8 9 10 10 11 11 12 12 13 14 15 15 14 14 13 12 11 10 9 9 9 10 11 12 13 13 12 11 11 11 11 12 12 12 13 13 14 15 15 16 16 16 16 16 16 16 17 17 17 17 17
Height
5634 5635 5636 5637 5639 5640 5641 5643 5645 5646 5648 5649 5651 5652 5653 5655 5657 5659 5660 5662 5664 5665 5666 5668 5669 5670 5671 5673 5674 5675 5676 5678 5679 5681 5682 5683 5685 5686 5688 5689 5691 5692 5694 5695 5696 5698 5699 5701 5703 5705 5706 5708 5709 5711 5712 5714 5715 5716 5718 5719 5721 5723 5724 5726 5728 5729 5730 5731 5732
5632 5633 5633 5634 5636 5637 5638 5640 5641 5643 5644 5646 5647 5649 5650 5652 5653 5655 5657 5658 5660 5661 5663 5665 5666 5667 5669 5670 5671 5672 5673 5675 5676 5677 5679 5681 5682 5684 5685 5687 5688 5689 5691 5692 5693 5695 5696 5698 5700 5702 5703 5705 5706 5708 5709 5711 5713 5714 5715 5717 5718 5720 5721 5724 5726 5727 5728 5728 5729
5631 5631 5631 5632 5633 5634 5635 5636 5637 5639 5641 5642 5644 5645 5647 5648 5650 5651 5653 5655 5656 5658 5660 5662 5663 5665 5666 5667 5668 5670 5671 5672 5673 5675 5676 5678 5679 5681 5682 5684 5685 5686 5688 5689 5690 5692 5694 5696 5697 5699 5701 5702 5704 5705 5706 5708 5710 5711 5713 5714 5716 5717 5719 5721 5722 5724 5726 5727 5728
5629 5629 5629 5630 5630 5631 5632 5633 5634 5635 5637 5638 5640 5642 5643 5645 5646 5648 5649 5651 5653 5655 5656 5658 5660 5661 5662 5664 5665 5666 5668 5669 5670 5672 5673 5675 5676 5678 5679 5681 5682 5683 5685 5686 5687 5689 5691 5693 5695 5696 5698 5700 5701 5702 5704 5705 5707 5708 5710 5712 5714 5715 5717 5718 5719 5721 5724 5726 5727
5627 5627 5628 5628 5628 5629 5629 5630 5631 5632 5633 5635 5636 5638 5640 5641 5643 5644 5646 5647 5649 5651 5652 5654 5656 5657 5659 5660 5662 5663 5665 5666 5667 5669 5670 5672 5673 5675 5676 5677 5679 5681 5682 5683 5685 5686 5688 5690 5692 5693 5695 5696 5698 5699 5701 5702 5704 5706 5707 5709 5711 5712 5714 5715 5717 5718 5720 5721 5723
5626 5626 5626 5626 5626 5626 5627 5627 5628 5629 5630 5631 5633 5634 5636 5637 5639 5641 5642 5644 5645 5647 5648 5651 5652 5654 5655 5657 5658 5660 5661 5663 5664 5666 5667 5668 5670 5671 5672 5674 5676 5677 5679 5681 5682 5683 5685 5687 5689 5690 5692 5693 5695 5696 5698 5700 5701 5703 5705 5706 5708 5709 5711 5712 5714 5715 5716 5716 5718
5624 5624 5624 5624 5625 5625 5625 5625 5626 5626 5627 5628 5629 5631 5632 5633 5635 5637 5638 5640 5641 5643 5645 5647 5649 5650 5651 5653 5654 5656 5657 5659 5661 5662 5664 5665 5666 5668 5669 5671 5672 5674 5676 5677 5679 5681 5682 5684 5685 5687 5688 5690 5692 5693 5695 5696 5698 5700 5701 5703 5705 5706 5707 5709 5711 5712 5713 5714 5714
5622 5622 5622 5622 5623 5623 5623 5623 5624 5624 5625 5625 5626 5627 5628 5630 5631 5633 5634 5636 5637 5639 5641 5643 5644 5646 5647 5649 5651 5652 5654 5655 5657 5658 5660 5661 5663 5665 5666 5667 5669 5671 5672 5674 5676 5677 5679 5681 5682 5684 5685 5687 5688 5690 5691 5693 5695 5696 5698 5700 5701 5703 5705 5706 5707 5709 5710 5711 5711
5620 5620 5620 5621 5621 5621 5621 5621 5622 5622 5622 5623 5623 5624 5625 5626 5627 5629 5630 5632 5634 5635 5637 5638 5640 5642 5643 5645 5646 5648 5650 5651 5653 5655 5656 5657 5659 5661 5662 5664 5666 5667 5669 5670 5672 5674 5676 5677 5679 5680 5682 5683 5685 5687 5688 5690 5691 5693 5695 5696 5698 5700 5701 5703 5704 5706 5707 5708 5709
5617 5618 5618 5618 5619 5619 5619 5620 5620 5620 5620 5621 5621 5621 5622 5623 5624 5625 5626 5628 5629 5631 5633 5635 5636 5638 5639 5641 5642 5644 5646 5647 5649 5651 5652 5654 5655 5656 5658 5660 5662 5663 5665 5667 5669 5671 5672 5674 5676 5677 5678 5680 5682 5683 5685 5687 5688 5690 5691 5693 5694 5696 5698 5699 5701 5702 5704 5705 5706
5615 5616 5616 5616 5616 5617 5617 5617 5618 5618 5618 5619 5619 5619 5620 5620 5621 5622 5623 5624 5625 5627 5629 5630 5632 5633 5635 5637 5638 5640 5641 5643 5645 5646 5648 5649 5651 5652 5654 5656 5657 5659 5661 5663 5665 5666 5668 5670 5672 5673 5675 5677 5678 5680 5682 5683 5685 5686 5688 5689 5691 5692 5694 5696 5697 5699 5700 5701 5702
5613 5613 5613 5614 5614 5614 5615 5615 5616 5616 5616 5616 5617 5617 5617 5618 5618 5619 5620 5621 5622 5623 5624 5626 5627 5629 5631 5632 5634 5636 5637 5639 5641 5642 5644 5645 5646 5648 5650 5651 5653 5655 5656 5658 5660 5662 5664 5666 5668 5670 5671 5673 5675 5676 5678 5680 5681 5683 5684 5686 5687 5689 5690 5692 5693 5695 5696 5697 5698
5611 5611 5611 5611 5611 5612 5612 5613 5613 5614 5614 5614 5615 5615 5615 5616 5616 5616 5617 5618 5619 5619 5620 5621 5623 5625 5626 5628 5630 5631 5633 5635 5636 5638 5639 5641 5642 5644 5645 5647 5649 5651 5652 5654 5656 5658 5660 5662 5664 5666 5667 5669 5671 5672 5674 5676 5677 5679 5681 5682 5683 5685 5686 5688 5690 5691 5692 5693 5695
5608 5609 5609 5609 5609 5609 5610 5610 5611 5611 5612 5612 5612 5613 5613 5613 5614 5614 5615 5615 5616 5616 5617 5618 5620 5621 5622 5624 5625 5627 5629 5630 5632 5633 5635 5636 5638 5639 5641 5642 5644 5646 5648 5650 5651 5653 5655 5657 5659 5661 5663 5665 5666 5668 5670 5671 5673 5675 5676 5678 5680 5681 5682 5684 5685 5687 5688 5689 5690
5606 5606 5606 5606 5607 5607 5607 5607 5608 5608 5609 5610 5610 5611 5611 5611 5611 5612 5612 5613 5613 5614 5614 5615 5616 5617 5618 5620 5621 5623 5624 5626 5627 5629 5631 5632 5633 5635 5636 5638 5640 5641 5643 5645 5647 5649 5651 5652 5654 5656 5658 5660 5662 5663 5665 5667 5669 5670 5672 5674 5675 5676 5678 5679 5681 5682 5684 5685 5686
5603 5604 5604 5604 5604 5605 5605 5605 5605 5606 5606 5607 5607 5608 5608 5609 5609 5610 5610 5611 5611 5611 5612 5613 5613 5614 5615 5616 5617 5618 5620 5621 5623 5625 5626 5627 5629 5630 5632 5633 5635 5637 5639 5640 5642 5644 5646 5648 5650 5651 5653 5655 5657 5659 5661 5662 5664 5666 5667 5669 5671 5672 5673 5675 5676 5678 5679 5680 5682
5601 5601 5601 5601 5602 5602 5602 5602 5603 5603 5603 5604 5605 5605 5606 5606 5607 5607 5608 5608 5609 5609 5610 5610 5611 5611 5612 5613 5613 5615 5616 5617 5619 5620 5621 5623 5624 5626 5627 5629 5631 5632 5634 5636 5637 5639 5641 5643 5645 5646 5649 5651 5652 5654 5656 5658 5659 5661 5663 5664 5666 5667 5669 5670 5672 5673 5675 5676 5677
5597 5598 5598 5599 5599 5599 5600 5600 5600 5601 5601 5601 5601 5602 5603 5603 5604 5605 5605 5606 5606 5607 5607 5607 5608 5609 5609 5610 5610 5611 5612 5613 5614 5616 5617 5618 5620 5621 5623 5624 5626 5628 5629 5631 5633 5634 5636 5638 5640 5641 5643 5645 5647 5649 5651 5653 5655 5656 5658 5660 5661 5663 5664 5666 5667 5669 5670 5671 5673
5594 5594 5595 5595 5596 5596 5597 5597 5597 5598 5598 5598 5599 5599 5600 5600 5601 5601 5602 5603 5604 5604 5605 5605 5606 5606 5606 5607 5607 5608 5609 5610 5611 5611 5613 5614 5615 5617 5618 5620 5621 5623 5625 5626 5628 5630 5631 5633 5635 5636 5638 5640 5642 5644 5646 5648 5650 5651 5653 5655 5656 5658 5659 5661 5663 5664 5666 5667 5668
5591 5591 5591 5592 5592 5593 5594 5594 5595 5595 5595 5596 5596 5596 5597 5597 5598 5599 5599 5600 5601 5601 5602 5602 5603 5603 5604 5604 5605 5606 5606 5606 5607 5608 5609 5610 5611 5612 5614 5615 5617 5618 5620 5621 5623 5625 5626 5628 5630 5631 5633 5635 5637 5639 5641 5643 5644 5646 5648 5650 5651 5653 5655 5656 5658 5659 5661 5662 5664
5587 5587 5588 5588 5589 5590 5590 5591 5591 5592 5592 5592 5593 5593 5594 5594 5595 5595 5596 5597 5597 5598 5599 5600 5600 5601 5601 5601 5602 5603 5603 5603 5604 5605 5606 5606 5607 5608 5609 5611 5612 5614 5615 5617 5618 5620 5622 5623 5625 5626 5628 5630 5632 5634 5636 5637 5639 5641 5643 5644 5646 5648 5649 5651 5653 5655 5656 5657 5659
5583 5584 5584 5585 5586 5586 5587 5587 5588 5588 5589 5589 5590 5590 5591 5591 5592 5592 5593 5594 5594 5595 5596 5596 5597 5597 5598 5599 5599 5600 5600 5601 5601 5602 5602 5603 5604 5604 5605 5606 5608 5609 5611 5612 5614 5615 5617 5618 5620 5621 5623 5625 5627 5629 5631 5632 5634 5636 5637 5639 5641 5642 5644 5646 5648 5649 5651 5652 5654
5579 5580 5581 5581 5582 5582 5583 5584 5584 5585 5586 5586 5586 5587 5587 5588 5588 5589 5590 5590 5591 5592 5592 5593 5594 5595 5595 5596 5596 5596 5597 5598 5598 5599 5599 5600 5601 5601 5602 5603 5604 5605 5606 5607 5609 5611 5612 5614 5615 5617 5618 5620 5622 5624 5625 5627 5629 5631 5632 5634 5636 5637 5639 5641 5642 5644 5646 5647 5649
5576 5576 5577 5578 5578 5579 5580 5580 5581 5581 5582 5582 5583 5584 5584 5585 5585 5586 5586 5587 5588 5588 5589 5590 5591 5591 5592 5592 5593 5594 5594 5595 5595 5596 5596 5597 5597 5598 5599 5599 5600 5601 5602 5603 5604 5606 5607 5609 5610 5612 5614 5616 5617 5618 5620 5622 5623 5625 5627 5628 5630 5632 5634 5635 5637 5639 5641 5642 5644
5572 5572 5573 5574 5575 5576 5576 5577 5577 5578 5579 5579 5580 5580 5581 5581 5582 5582 5583 5584 5584 5585 5586 5586 5587 5588 5589 5589 5590 5591 5591 5591 5592 5592 5593 5594 5594 5595 5596 5596 5597 5597 5598 5599 5600 5601 5603 5604 5606 5607 5609 5611 5612 5613 5615 5616 5618 5620 5621 5623 5625 5626 5628 5630 5632 5634 5636 5637 5639
5568 5569 5570 5570 5571 5572 5573 5573 5574 5575 5575 5576 5576 5577 5577 5578 5579 5579 5580 5580 5581 5581 5582 5583 5584 5585 5585 5586 5586 5587 5588 5588 5589 5589 5590 5591 5591 5592 5592 5593 5594 5594 5595 5596 5596 5597 5599 5600 5601 5603 5604 5606 5607 5608 5610 5611 5613 5615 5616 5618 5619 5621 5623 5625 5626 5628 5630 5632 5633
5565 5565 5566 5566 5567 5568 5569 5570 5570 5571 5571 5572 5573 5574 5574 5575 5575 5576 5576 5577 5577 5578 5579 5579 5580 5581 5582 5582 5583 5584 5585 5585 5586 5586 5586 5587 5588 5589 5589 5590 5590 5591 5591 5592 5593 5594 5595 5596 5597 5598 5599 5601 5602 5603 5605 5606 5608 5609 5611 5612 5614 5616 5617 5619 5621 5623 5625 5626 5628
5561 5561 5562 5563 5564 5565 5565 5566 5567 5567 5568 5569 5570 5570 5571 5571 5572 5572 5573 5573 5574 5574 5575 5576 5576 5577 5578 5579 5580 5581 5581 5581 5582 5583 5583 5584 5585 5585 5586 5586 5587 5588 5588 5589 5590 5591 5591 5592 5593 5594 5595 5596 5597 5598 5600 5601 5603 5604 5606 5607 5609 5610 5612 5614 5615 5617 5619 5621 5623
5557 5558 5558 5559 5560 5561 5562 5562 5563 5564 5565 5565 5566 5567 5567 5568 5568 5569 5569 5570 5570 5571 5571 5572 5573 5574 5575 5576 5576 5577 5578 5578 5579 5579 5580 5581 5581 5582 5582 5583 5584 5585 5585 5586 5586 5587 5588 5589 5589 5590 5591 5591 5592 5594 5595 5596 5598 5599 5601 5602 5603 5605 5607 5608 5610 5612 5614 5616 5617
5554 5554 5555 5556 5556 5557 5558 5559 5560 5560 5561 5562 5563 5563 5564 5565 5565 5566 5566 5566 5567 5567 5568 5569 5569 5570 5571 5572 5573 5573 5574 5575 5576 5576 5577 5577 5578 5578 5579 5580 5581 5581 5582 5583 5583 5584 5585 5585 5586 5586 5587 5588 5588 5589 5591 5592 5593 5594 5596 5597 5598 5600 5601 5603 5605 5606 5608 5610 5612
5550 5551 5551 5552 5552 5553 5554 5555 5556 5557 5558 5558 5559 5560 5561 5561 5562 5562 5562 5563 5563 5564 5564 5565 5566 5566 5567 5568 5569 5570 5571 5571 5572 5573 5573 5574 5575 5575 5576 5576 5577 5578 5579 5579 5580 5581 5581 5582 5582 5583 5583 5584 5585 5585 5586 5587 5589 5590 5591 5592 5594 5595 5596 5598 5599 5601 5603 5604 5606
5546 5547 5547 5548 5549 5550 5551 5551 5552 5553 5554 5555 5556 5556 5557 5558 5558 5559 5559 5560 5560 5561 5561 5561 5562 5563 5564 5565 5566 5566 5567 5568 5569 5570 5570 5571 5571 5572 5572 5573 5574 5574 5575 5576 5576 5577 5578 5578 5579 5580 5580 5580 5581 5581 5583 5584 5585 5586 5586 5588 5589 5590 5591 5593 5594 5596 5597 5599 5601
5543 5543 5544 5544 5545 5546 5547 5548 5549 5550 5551 5552 5553 5553 5554 5555 5555 5556 5556 5556 5557 5557 5558 5558 5559 5560 5560 5561 5562 5563 5564 5565 5565 5566 5567 5567 5568 5569 5569 5570 5570 5571 5572 5572 5573 5574 5574 5575 5576 5576 5576 5576 5577 5578 5579 5580 5581 5581 5582 5583 5585 5586 5587 5588 5590 5591 5592 5594 5596
5539 5540 5540 5541 5541 5542 5543 5544 5545 5546 5547 5549 5549 5550 5551 5551 5552 5552 5553 5553 5553 5554 5554 5555 5555 5556 5557 5557 5558 5559 5560 5561 5562 5563 5563 5564 5565 5565 5566 5566 5567 5568 5568 5569 5570 5570 5571 5571 5572 5572 5573 5573 5574 5575 5576 5576 5577 5577 5578 5579 5580 5581 5582 5584 5585 5586 5587 5589 5591
5536 5536 5536 5537 5538 5539 5540 5541 5542 5543 5544 5545 5546 5547 5547 5548 5548 5549 5549 5550 5550 5551 5551 5551 5552 5552 5553 5554 5555 5556 5556 5557 5558 5559 5560 5561 5561 5562 5563 5563 5564 5564 5565 5566 5566 5566 5567 5568 5568 5569 5569 5570 5570 5571 5572 5573 5573 5574 5574 5575 5576 5577 5578 5579 5580 5581 5583 5584 5586
5532 5532 5533 5533 5534 5535 5536 5537 5538 5540 5541 5542 5543 5543 5544 5545 5545 5546 5546 5546 5547 5547 5548 5548 5549 5549 5550 5551 5551 5552 5553 5554 5555 5556 5556 5557 5558 5559 5559 5560 5561 5561 5562 5562 5563 5563 5564 5564 5564 5565 5565 5566 5567 5568 5568 5569 5569 5570 5571 5571 5572 5573 5574 5575 5576 5577 5578 5580 5581
5528 5529 5529 5530 5531 5531 5532 5534 5535 5536 5538 5539 5540 5540 5541 5541 5541 5542 5543 5543 5544 5544 5545 5545 5546 5546 5547 5547 5548 5549 5550 5550 5551 5552 5553 5554 5554 5555 5556 5556 5557 5558 5559 5559 5560 5560 5560 5561 5561 5561 5562 5562 5563 5564 5565 5565 5566 5566 5567 5567 5568 5569 5570 5571 5572 5573 5574 5576 5576
5525 5525 5526 5526 5527 5528 5529 5530 5532 5533 5534 5536 5536 5537 5537 5538 5538 5539 5539 5540 5541 5541 5541 5542 5542 5543 5543 5544 5545 5546 5546 5547 5548 5548 5549 5550 5551 5552 5552 5553 5554 5554 5555 5556 5556 5556 5557 5557 5558 5558 5558 5559 5559 5560 5561 5561 5562 5562 5563 5564 5564 5565 5566 5567 5568 5569 5570 5571 5572
5521 5522 5522 5523 5524 5525 5526 5527 5528 5530 5531 5532 5533 5534 5534 5535 5535 5536 5536 5537 5537 5538 5538 5539 5539 5540 5540 5541 5541 5542 5543 5544 5544 5545 5546 5547 5547 5548 5549 5550 5550 5551 5551 5552 5553 5553 5554 5554 5554 5554 5555 5555 5556 5556 5557 5557 5558 5559 5559 5560 5561 5561 5562 5563 5564 5565 5566 5567 5568
5518 5518 5519 5520 5521 5521 5523 5524 5525 5526 5528 5529 5530 5530 5531 5531 5532 5532 5533 5534 5534 5535 5535 5536 5536 5537 5537 5538 5538 5539 5540 5541 5541 5542 5543 5543 5544 5545 5546 5546 5546 5547 5548 5549 5550 5550 5550 5551 5551 5551 5551 5552 5552 5553 5553 5554 5554 5555 5556 5556 5557 5558 5558 5559 5560 5561 5562 5563 5564
5514 5515 5516 5516 5517 5518 5519 5521 5522 5523 5525 5526 5526 5527 5527 5528 5529 5529 5530 5531 5531 5532 5532 5533 5533 5534 5534 5535 5535 5536 5537 5537 5538 5539 5539 5540 5541 5541 5542 5543 5543 5544 5544 5545 5546 5547 5547 5547 5547 5548 5548 5548 5549 5549 5550 5550 5551 5551 5552 5552 5553 5554 5555 5555 5556 5557 5558 5559 5559